| time (UTC) | temp F | wind direction | speed MPH | gust MPH | rain 1hr in | rain 24hr in | rain mn in | humidity % | barometer mb |
| 20260831064841 | 57 | 315 | 7.0 | 8.0 | 0.00 | 0.22 | 0.00 | 89 | 1017.5 |
| 20260831063940 | 57 | 313 | 7.0 | 11.0 | 0.00 | 0.22 | 0.00 | 89 | 1017.4 |
| 20260831062940 | 57 | 312 | 9.0 | 13.0 | 0.00 | 0.22 | 0.00 | 89 | 1017.4 |
| 20260831061941 | 57 | 314 | 10.0 | 16.0 | 0.00 | 0.22 | 0.00 | 89 | 1017.2 |
| 20260831061039 | 58 | 304 | 11.0 | 16.0 | 0.00 | 0.22 | 0.00 | 89 | 1017.3 |
| 20260831060042 | 58 | 311 | 8.0 | 12.0 | 0.00 | 0.22 | 0.00 | 89 | 1017.2 |
| 20260831055141 | 58 | 306 | 9.0 | 11.0 | 0.00 | 0.22 | 0.00 | 89 | 1017.1 |
| 20260831054142 | 58 | 315 | 9.0 | 12.0 | 0.00 | 0.22 | 0.00 | 91 | 1017.0 |
| 20260831053240 | 58 | 293 | 11.0 | 13.0 | 0.00 | 0.22 | 0.00 | 92 | 1016.9 |
| 20260831052240 | 58 | 299 | 12.0 | 16.0 | 0.00 | 0.22 | 0.00 | 93 | 1016.9 |
| 20260831051242 | 59 | 279 | 11.0 | 13.0 | 0.00 | 0.22 | 0.00 | 92 | 1016.9 |
| 20260831050240 | 59 | 291 | 10.0 | 12.0 | 0.00 | 0.22 | 0.00 | 93 | 1016.6 |
| 20260831045241 | 59 | 270 | 10.0 | 15.0 | 0.00 | 0.22 | 0.00 | 93 | 1016.6 |
| 20260831043239 | 59 | 269 | 9.0 | 15.0 | 0.00 | 0.22 | 0.00 | 92 | 1016.7 |
| 20260831042241 | 59 | 269 | 8.0 | 11.0 | 0.00 | 0.22 | 0.00 | 92 | 1016.6 |
| 20260831040241 | 59 | 270 | 8.0 | 10.0 | 0.03 | 0.22 | 0.00 | 91 | 1016.4 |
| 20260831035327 | 60 | 267 | 10.0 | 14.0 | 0.05 | 0.22 | 0.22 | 91 | 1016.3 |
| 20260831035223 | 60 | 270 | 9.0 | 13.0 | 0.05 | 0.22 | 0.22 | 91 | 1016.3 |
| 20260831034225 | 60 | 270 | 9.0 | 13.0 | 0.06 | 0.22 | 0.22 | 90 | 1015.9 |
| 20260831033225 | 59 | 261 | 7.0 | 9.0 | 0.06 | 0.22 | 0.22 | 91 | 1016.0 |
| 20260831031225 | 60 | 261 | 6.0 | 8.0 | 0.06 | 0.20 | 0.20 | 90 | 1015.7 |
| 20260831030224 | 60 | 254 | 7.0 | 11.0 | 0.05 | 0.19 | 0.19 | 89 | 1016.1 |
| 20260831025226 | 61 | 263 | 13.0 | 16.0 | 0.03 | 0.17 | 0.16 | 87 | 1016.6 |
| 20260831023223 | 61 | 268 | 13.0 | 18.0 | 0.03 | 0.16 | 0.15 | 88 | 1016.4 |
| 20260831022224 | 61 | 265 | 7.0 | 11.0 | 0.02 | 0.15 | 0.15 | 87 | 1016.1 |
| 20260831021323 | 61 | 269 | 8.0 | 11.0 | 0.01 | 0.14 | 0.14 | 86 | 1016.3 |
| 20260831015324 | 61 | 270 | 8.0 | 13.0 | 0.01 | 0.14 | 0.14 | 86 | 1016.6 |
| 20260831011525 | 62 | 315 | 3.0 | 5.0 | 0.10 | 0.13 | 0.13 | 91 | 1016.5 |
| 20260831010624 | 62 | 270 | 2.0 | 2.0 | 0.11 | 0.13 | 0.13 | 91 | 1016.6 |
| 20260831005623 | 62 | 308 | 4.0 | 5.0 | 0.12 | 0.13 | 0.13 | 89 | 1016.7 |
| 20260831005525 | 62 | 292 | 2.0 | 4.0 | 0.12 | 0.13 | 0.13 | 90 | 1016.5 |
| 20260831004525 | 63 | 317 | 6.0 | 8.0 | 0.09 | 0.10 | 0.10 | 89 | 1016.7 |
| 20260831002624 | 64 | 283 | 10.0 | 13.0 | 0.04 | 0.05 | 0.05 | 87 | 1016.3 |
| 20260831001624 | 64 | 267 | 13.0 | 19.0 | 0.03 | 0.03 | 0.03 | 85 | 1015.8 |
| 20260831001525 | 64 | 272 | 14.0 | 18.0 | 0.03 | 0.03 | 0.03 | 84 | 1015.8 |
| 20260831000525 | 65 | 263 | 19.0 | 25.0 | 0.02 | 0.02 | 0.02 | 81 | 1015.6 |
| 20260830235525 | 66 | 267 | 11.0 | 17.0 | 0.01 | 0.01 | 0.01 | 80 | 1015.3 |
| 20260830234524 | 65 | 252 | 11.0 | 14.0 | 0.01 | 0.01 | 0.01 | 81 | 1015.2 |
| 20260830233526 | 66 | 250 | 12.0 | 18.0 | 0.01 | 0.01 | 0.01 | 79 | 1014.9 |
| 20260830232524 | 66 | 260 | 10.0 | 17.0 | 0.00 | 0.00 | 0.00 | 78 | 1015.0 |
| 20260830231525 | 68 | 252 | 10.0 | 14.0 | 0.00 | 0.00 | 0.00 | 74 | 1014.7 |
| 20260830230623 | 68 | 256 | 14.0 | 18.0 | 0.00 | 0.00 | 0.00 | 72 | 1014.5 |
| 20260830225625 | 70 | 254 | 13.0 | 20.0 | 0.00 | 0.00 | 0.00 | 67 | 1014.2 |
| 20260830225524 | 70 | 242 | 16.0 | 22.0 | 0.00 | 0.00 | 0.00 | 67 | 1014.2 |
| 20260830225423 | 70 | 249 | 12.0 | 17.0 | 0.00 | 0.00 | 0.00 | 67 | 1014.2 |
| 20260830224522 | 70 | 250 | 16.0 | 21.0 | 0.00 | 0.00 | 0.00 | 65 | 1014.2 |
| 20260830223525 | 71 | 264 | 14.0 | 19.0 | 0.00 | 0.00 | 0.00 | 65 | 1014.2 |
| 20260830221624 | 71 | 264 | 10.0 | 13.0 | 0.00 | 0.00 | 0.00 | 64 | 1014.1 |
| 20260830220625 | 71 | 252 | 14.0 | 17.0 | 0.00 | 0.00 | 0.00 | 63 | 1013.9 |
| 20260830215626 | 71 | 240 | 17.0 | 22.0 | 0.00 | 0.00 | 0.00 | 63 | 1013.7 |
| 20260830214624 | 71 | 235 | 15.0 | 21.0 | 0.00 | 0.00 | 0.00 | 62 | 1014.0 |
| 20260830214524 | 71 | 259 | 14.0 | 21.0 | 0.00 | 0.00 | 0.00 | 62 | 1013.9 |
| 20260830213525 | 71 | 242 | 12.0 | 17.0 | 0.00 | 0.00 | 0.00 | 62 | 1013.9 |
| 20260830212524 | 71 | 248 | 18.0 | 24.0 | 0.00 | 0.00 | 0.00 | 62 | 1013.9 |
| 20260830211524 | 71 | 251 | 22.0 | 29.0 | 0.00 | 0.00 | 0.00 | 63 | 1013.9 |
| 20260830211425 | 71 | 233 | 13.0 | 22.0 | 0.00 | 0.00 | 0.00 | 63 | 1014.0 |
| 20260830210425 | 71 | 240 | 14.0 | 22.0 | 0.00 | 0.00 | 0.00 | 63 | 1014.4 |
| 20260830204424 | 71 | 240 | 15.0 | 19.0 | 0.00 | 0.00 | 0.00 | 63 | 1014.2 |
| 20260830203426 | 71 | 240 | 9.0 | 13.0 | 0.00 | 0.00 | 0.00 | 63 | 1014.4 |
| 20260830203323 | 71 | 253 | 11.0 | 16.0 | 0.00 | 0.00 | 0.00 | 62 | 1014.3 |
| 20260830201225 | 72 | 231 | 15.0 | 21.0 | 0.00 | 0.00 | 0.00 | 62 | 1014.5 |
| 20260830200323 | 72 | 240 | 15.0 | 23.0 | 0.00 | 0.00 | 0.00 | 60 | 1014.7 |
| 20260830195325 | 72 | 256 | 13.0 | 19.0 | 0.00 | 0.00 | 0.00 | 60 | 1014.8 |
| 20260830195226 | 72 | 248 | 9.0 | 12.0 | 0.00 | 0.00 | 0.00 | 60 | 1014.8 |
| 20260830195125 | 72 | 238 | 12.0 | 19.0 | 0.00 | 0.00 | 0.00 | 60 | 1014.8 |
| 20260830194125 | 72 | 235 | 15.0 | 21.0 | 0.00 | 0.00 | 0.00 | 61 | 1014.8 |
| 20260830193224 | 71 | 228 | 13.0 | 21.0 | 0.00 | 0.00 | 0.00 | 61 | 1014.9 |
| 20260830191223 | 72 | 221 | 10.0 | 13.0 | 0.00 | 0.00 | 0.00 | 60 | 1015.3 |
| 20260830190224 | 72 | 249 | 10.0 | 12.0 | 0.00 | 0.00 | 0.00 | 60 | 1015.3 |
| 20260830185224 | 72 | 233 | 8.0 | 15.0 | 0.00 | 0.00 | 0.00 | 61 | 1015.4 |
| 20260830184224 | 72 | 245 | 8.0 | 12.0 | 0.00 | 0.00 | 0.00 | 61 | 1015.6 |
| 20260830184123 | 72 | 252 | 9.0 | 11.0 | 0.00 | 0.00 | 0.00 | 61 | 1015.6 |
| 20260830183223 | 73 | 249 | 8.0 | 14.0 | 0.00 | 0.00 | 0.00 | 60 | 1015.7 |
| 20260830182223 | 73 | 244 | 12.0 | 16.0 | 0.00 | 0.00 | 0.00 | 60 | 1015.7 |
| 20260830181226 | 73 | 250 | 9.0 | 15.0 | 0.00 | 0.00 | 0.00 | 59 | 1015.9 |
| 20260830180225 | 73 | 258 | 9.0 | 11.0 | 0.00 | 0.00 | 0.00 | 58 | 1015.8 |
| 20260830175323 | 74 | 264 | 9.0 | 13.0 | 0.00 | 0.00 | 0.00 | 56 | 1015.9 |
| 20260830173323 | 75 | 238 | 8.0 | 14.0 | 0.00 | 0.00 | 0.00 | 55 | 1015.9 |
| 20260830172323 | 75 | 264 | 10.0 | 19.0 | 0.00 | 0.00 | 0.00 | 55 | 1015.9 |
| 20260830170325 | 75 | 251 | 9.0 | 14.0 | 0.00 | 0.00 | 0.00 | 53 | 1016.1 |
| 20260830165326 | 75 | 256 | 9.0 | 12.0 | 0.00 | 0.00 | 0.00 | 54 | 1015.9 |
| 20260830164324 | 76 | 253 | 7.0 | 10.0 | 0.00 | 0.00 | 0.00 | 52 | 1016.1 |
| 20260830163422 | 76 | 263 | 9.0 | 12.0 | 0.00 | 0.00 | 0.00 | 52 | 1016.2 |
| 20260830162427 | 76 | 258 | 15.0 | 23.0 | 0.00 | 0.00 | 0.00 | 51 | 1016.3 |
| 20260830162322 | 76 | 257 | 12.0 | 20.0 | 0.00 | 0.00 | 0.00 | 52 | 1016.4 |
| 20260830160324 | 75 | 256 | 16.0 | 21.0 | 0.00 | 0.00 | 0.00 | 53 | 1016.6 |
| 20260830154326 | 75 | 247 | 11.0 | 14.0 | 0.00 | 0.00 | 0.00 | 53 | 1017.1 |
| 20260830153422 | 75 | 244 | 9.0 | 12.0 | 0.00 | 0.00 | 0.00 | 53 | 1017.1 |
| 20260830153325 | 74 | 254 | 7.0 | 9.0 | 0.00 | 0.00 | 0.00 | 53 | 1017.2 |
| 20260830151325 | 73 | 232 | 8.0 | 13.0 | 0.00 | 0.00 | 0.00 | 54 | 1017.6 |
| 20260830150326 | 73 | 259 | 15.0 | 18.0 | 0.00 | 0.00 | 0.00 | 55 | 1017.6 |
| 20260830145423 | 73 | 259 | 11.0 | 17.0 | 0.00 | 0.00 | 0.00 | 53 | 1017.7 |
| 20260830144425 | 74 | 256 | 10.0 | 15.0 | 0.00 | 0.00 | 0.00 | 52 | 1017.8 |
| 20260830143524 | 73 | 259 | 11.0 | 16.0 | 0.00 | 0.00 | 0.00 | 51 | 1017.9 |
| 20260830142525 | 73 | 260 | 7.0 | 12.0 | 0.00 | 0.00 | 0.00 | 52 | 1017.8 |
| 20260830141526 | 73 | 258 | 10.0 | 14.0 | 0.00 | 0.00 | 0.00 | 52 | 1017.8 |
| 20260830140623 | 73 | 262 | 9.0 | 12.0 | 0.00 | 0.00 | 0.00 | 50 | 1017.9 |
| 20260830135623 | 72 | 242 | 12.0 | 17.0 | 0.00 | 0.00 | 0.00 | 52 | 1017.9 |
| 20260830134623 | 71 | 266 | 9.0 | 15.0 | 0.00 | 0.00 | 0.00 | 55 | 1018.0 |
| 20260830133723 | 71 | 244 | 9.0 | 13.0 | 0.00 | 0.00 | 0.00 | 54 | 1018.1 |
| 20260830131823 | 71 | 260 | 17.0 | 21.0 | 0.00 | 0.00 | 0.00 | 54 | 1018.0 |
| 20260830130824 | 71 | 252 | 10.0 | 13.0 | 0.00 | 0.00 | 0.00 | 53 | 1018.1 |
| 20260830125825 | 71 | 243 | 7.0 | 10.0 | 0.00 | 0.00 | 0.00 | 54 | 1018.1 |
| 20260830125726 | 71 | 243 | 7.0 | 9.0 | 0.00 | 0.00 | 0.00 | 54 | 1018.2 |
| 20260830124823 | 71 | 239 | 11.0 | 14.0 | 0.00 | 0.00 | 0.00 | 54 | 1018.2 |
| 20260830123825 | 71 | 232 | 10.0 | 15.0 | 0.00 | 0.00 | 0.00 | 54 | 1018.1 |
| 20260830122825 | 70 | 244 | 8.0 | 14.0 | 0.00 | 0.00 | 0.00 | 54 | 1018.2 |
| 20260830121823 | 69 | 236 | 11.0 | 17.0 | 0.00 | 0.00 | 0.00 | 55 | 1018.4 |
| 20260830120824 | 69 | 240 | 10.0 | 15.0 | 0.00 | 0.00 | 0.00 | 55 | 1018.5 |
| 20260830115825 | 69 | 244 | 11.0 | 15.0 | 0.00 | 0.00 | 0.00 | 55 | 1018.5 |
| 20260830113924 | 69 | 232 | 11.0 | 16.0 | 0.00 | 0.00 | 0.00 | 56 | 1018.7 |
| 20260830112924 | 69 | 247 | 10.0 | 17.0 | 0.00 | 0.00 | 0.00 | 55 | 1018.6 |
| 20260830111924 | 69 | 232 | 13.0 | 17.0 | 0.00 | 0.00 | 0.00 | 54 | 1018.7 |
| 20260830111824 | 69 | 239 | 14.0 | 19.0 | 0.00 | 0.00 | 0.00 | 54 | 1018.6 |
| 20260830110922 | 69 | 245 | 11.0 | 16.0 | 0.00 | 0.00 | 0.00 | 55 | 1018.8 |
| 20260830105924 | 69 | 234 | 14.0 | 20.0 | 0.00 | 0.00 | 0.00 | 55 | 1018.9 |
| 20260830105825 | 69 | 232 | 13.0 | 17.0 | 0.00 | 0.00 | 0.00 | 55 | 1018.9 |
| 20260830104823 | 69 | 235 | 10.0 | 14.0 | 0.00 | 0.00 | 0.00 | 55 | 1018.9 |
| 20260830103824 | 68 | 243 | 12.0 | 18.0 | 0.00 | 0.00 | 0.00 | 55 | 1019.0 |
| 20260830102823 | 68 | 233 | 9.0 | 12.0 | 0.00 | 0.00 | 0.00 | 53 | 1019.2 |
| 20260830101823 | 68 | 238 | 10.0 | 14.0 | 0.00 | 0.00 | 0.00 | 54 | 1019.4 |
| 20260830100824 | 68 | 232 | 9.0 | 12.0 | 0.00 | 0.00 | 0.00 | 54 | 1019.4 |
| 20260830095827 | 67 | 229 | 8.0 | 13.0 | 0.00 | 0.00 | 0.00 | 54 | 1019.4 |
| 20260830094823 | 67 | 237 | 7.0 | 8.0 | 0.00 | 0.00 | 0.00 | 53 | 1019.3 |
| 20260830093824 | 66 | 224 | 9.0 | 11.0 | 0.00 | 0.00 | 0.00 | 56 | 1019.4 |
| 20260830092825 | 66 | 241 | 3.0 | 5.0 | 0.00 | 0.00 | 0.00 | 56 | 1019.5 |
| 20260830092724 | 66 | 234 | 3.0 | 5.0 | 0.00 | 0.00 | 0.00 | 57 | 1019.5 |
| 20260830092624 | 66 | 239 | 5.0 | 8.0 | 0.00 | 0.00 | 0.00 | 57 | 1019.4 |
| 20260830091624 | 66 | 228 | 4.0 | 6.0 | 0.00 | 0.00 | 0.00 | 59 | 1019.5 |
| 20260830090624 | 65 | 232 | 1.0 | 3.0 | 0.00 | 0.00 | 0.00 | 62 | 1019.7 |
| 20260830090526 | 65 | 237 | 1.0 | 3.0 | 0.00 | 0.00 | 0.00 | 61 | 1019.6 |
| 20260830085524 | 66 | 248 | 4.0 | 5.0 | 0.00 | 0.00 | 0.00 | 60 | 1019.7 |
| 20260830084525 | 66 | 240 | 5.0 | 6.0 | 0.00 | 0.00 | 0.00 | 59 | 1019.8 |
| 20260830084423 | 66 | 247 | 6.0 | 8.0 | 0.00 | 0.00 | 0.00 | 59 | 1019.8 |
| 20260830083424 | 67 | 265 | 6.0 | 8.0 | 0.00 | 0.00 | 0.00 | 57 | 1019.9 |
| 20260830082424 | 66 | 217 | 5.0 | 11.0 | 0.00 | 0.00 | 0.00 | 58 | 1019.6 |
| 20260830081523 | 65 | 219 | 5.0 | 8.0 | 0.00 | 0.00 | 0.00 | 59 | 1019.7 |
| 20260830080525 | 66 | 248 | 1.0 | 2.0 | 0.00 | 0.00 | 0.00 | 58 | 1019.7 |
| 20260830080423 | 66 | 227 | 0.0 | 2.0 | 0.00 | 0.00 | 0.00 | 57 | 1019.6 |
| 20260830075423 | 66 | 233 | 2.0 | 4.0 | 0.00 | 0.00 | 0.00 | 58 | 1019.8 |
| 20260830073425 | 65 | 247 | 5.0 | 7.0 | 0.00 | 0.00 | 0.00 | 60 | 1019.7 |
| 20260830072424 | 65 | 247 | 6.0 | 7.0 | 0.00 | 0.00 | 0.00 | 58 | 1019.9 |
| 20260830072324 | 65 | 252 | 5.0 | 8.0 | 0.00 | 0.00 | 0.00 | 58 | 1019.8 |
| 20260830071323 | 64 | 248 | 5.0 | 8.0 | 0.00 | 0.00 | 0.00 | 66 | 1019.9 |